User: anonymous   Login
Location: Unspecified
(0.0000°N, 0.0000°E)
Time: 08:20:43
(UTC+00:00)
Language:

Fermi - Orbit

View from above orbital plane
View from above orbital plane
View from above satellite
View from above satellite

Ground track
Ground track

The orbit data is extracted from the following two-line orbital elements,

1 33053U 08029A   22021.85097222  .00001169  00000-0  49725-4 0  9993
2 33053  25.5833  86.4829 0011806 282.1316  77.7897 15.11752124751487
Epoch (UTC): 21 January 2022 20:25:24
Eccentricity: 0.0011806
inclination: 25.5833°
perigee height: 523 km
apogee height: 539 km
right ascension of ascending node: 86.4829°
argument of perigee: 282.1316°
revolutions per day: 15.11752124
mean anomaly at epoch: 77.7897°
orbit number at epoch: 75148

The dashed part of the orbit path shows where the satellite is in the earth's shadow,  

DLR